Temperature
14 15 15 16 12 10 12 13 12 13 13 15 15 15 14 15 15 16 16 16 16 16 15 15 15 15 15 15 15 15 16 15 15 15 15 15 15 15 15 15 15 15 15 15 15 15 15 15 15
14 14 15 15 11 11 12 12 12 13 14 15 15 15 14 14 15 15 15 15 16 15 15 15 15 15 15 15 15 15 15 15 15 15 15 15 15 15 15 15 15 15 15 15 15 15 15 14 14
13 14 14 10 10 11 13 13 12 13 14 14 14 14 14 14 14 14 15 15 15 15 15 15 14 15 15 15 15 15 15 15 15 15 15 15 15 15 15 15 15 15 15 15 14 14 14 14 14
13 14 13 10 11 11 12 12 11 12 13 14 13 13 13 13 13 14 15 15 15 15 14 14 14 14 15 15 15 15 15 15 15 15 15 15 15 15 15 15 14 14 14 14 14 14 14 14 14
13 13 10 10 11 11 10 11 12 11 12 12 12 11 12 12 13 14 14 14 14 14 14 14 14 14 14 15 15 15 15 15 15 15 15 15 15 15 15 14 14 14 14 14 14 14 14 14 14
12 10 9 10 10 11 10 11 11 11 11 12 12 11 12 12 13 14 14 14 14 14 14 14 14 14 14 14 14 14 14 14 14 14 15 15 14 14 14 14 14 14 14 14 14 14 14 14 13
11 8 9 9 10 10 10 11 11 10 10 10 11 10 11 12 12 13 13 13 13 13 13 13 14 14 14 14 14 14 14 14 14 14 14 14 14 14 14 14 14 14 14 13 13 13 13 13 13
11 8 9 8 9 10 10 10 10 10 10 10 10 9 9 11 11 12 12 13 13 13 13 13 13 13 13 13 14 14 14 14 14 14 14 14 14 14 14 13 13 13 13 13 13 13 13 13 13
10 7 8 8 9 9 9 9 9 10 9 9 9 9 9 10 11 11 12 12 12 12 12 13 13 13 13 13 13 13 13 13 13 13 14 14 13 13 13 13 13 13 13 13 13 13 13 13 12
9 7 8 8 8 8 9 9 9 9 8 8 8 9 9 10 10 11 11 12 12 12 12 12 12 12 12 13 13 13 13 13 13 13 13 13 13 13 13 13 13 13 13 13 12 12 12 12 12
7 7 8 8 8 8 8 8 8 8 7 7 7 8 9 9 9 10 10 10 11 11 11 12 12 12 12 12 12 13 13 13 12 13 13 13 13 13 13 12 12 12 12 12 12 12 12 12 12
6 6 7 7 8 8 7 7 6 6 7 7 7 8 8 8 9 9 9 10 10 10 11 11 11 12 12 12 12 12 12 12 12 12 12 12 12 12 12 12 12 12 12 12 12 12 12 11 11
6 6 6 7 7 6 6 6 6 6 6 7 7 7 7 7 8 8 8 9 9 10 10 10 11 11 11 11 11 11 12 12 12 12 12 12 12 12 12 12 12 12 11 11 11 11 11 11 11
5 5 6 6 6 5 5 5 5 4 5 5 6 6 6 6 7 7 8 8 9 9 10 10 10 10 10 11 11 11 11 11 11 11 11 12 12 11 11 11 11 11 11 11 11 11 11 11 11
5 5 5 5 5 5 5 4 3 4 4 5 5 5 5 6 6 6 7 7 8 8 9 9 10 10 10 10 10 10 11 11 11 11 11 11 11 11 11 11 11 11 11 11 11 11 11 10 10
5 4 4 4 4 4 5 4 3 4 4 4 4 4 4 5 5 6 6 6 7 8 8 9 9 9 10 10 10 10 10 10 10 11 11 11 11 11 11 10 10 10 10 10 10 10 10 10 10
3 3 3 4 3 3 3 3 3 3 3 3 3 3 4 4 5 5 6 6 6 7 8 8 8 9 9 9 9 9 10 10 10 10 10 10 10 10 10 10 10 10 10 10 10 10 10 10 10
3 2 3 3 3 2 2 2 2 2 2 2 2 2 3 3 4 4 5 6 6 6 7 8 8 8 8 9 9 9 9 9 9 9 9 10 10 10 9 9 9 9 9 9 9 9 9 9 9
3 2 2 2 3 2 1 1 1 1 1 1 1 2 2 3 4 4 4 5 5 6 7 7 7 8 8 8 8 8 9 9 9 9 9 9 9 9 9 9 9 9 9 9 9 9 9 8 8
2 2 2 2 2 2 1 1 1 1 0 1 1 1 1 2 3 3 4 5 5 5 6 6 7 7 7 8 8 8 8 8 8 8 8 8 8 9 9 9 9 9 8 8 8 8 8 8 8
2 2 2 2 2 1 1 1 0 0 -0 -0 -0 -0 1 1 2 3 3 4 4 5 5 5 6 6 7 7 7 7 7 7 7 8 8 8 8 8 8 8 8 8 8 8 8 8 8 8 8
2 2 2 2 1 1 1 1 0 -1 -1 -1 -1 -1 -0 0 1 2 2 3 3 4 4 5 5 6 6 6 6 7 7 7 7 7 7 7 7 7 8 8 8 8 8 8 8 7 7 7 7
1 1 1 1 0 -0 -0 -0 0 -1 -1 -1 -1 -1 -0 0 1 1 2 2 3 3 4 4 5 5 5 5 6 6 6 6 6 6 6 7 7 7 7 7 7 7 7 7 7 7 7 7 7
1 1 1 -0 -0 -0 -0 -0 -0 -2 -1 -1 -1 -1 -1 -0 0 1 1 2 2 3 3 4 4 4 4 5 5 5 5 5 6 6 6 6 6 6 6 6 6 6 7 7 7 7 7 6 6
0 0 0 -0 -1 -0 -0 -1 -1 -2 -1 -1 -2 -1 -1 -1 -0 0 1 1 2 2 3 3 3 3 4 4 4 4 4 5 5 5 5 5 6 6 6 6 6 6 6 6 6 6 6 6 6
-0 -0 -0 0 -0 -1 -1 -1 -2 -2 -2 -2 -2 -2 -1 -1 -1 -0 0 1 1 2 2 2 2 3 3 3 3 4 4 4 4 4 4 4 5 5 5 5 5 5 6 6 6 6 6 6 6
-1 -1 -1 -2 -2 -2 -2 -3 -3 -2 -3 -2 -2 -2 -2 -2 -1 -1 -0 0 1 1 1 2 2 2 2 2 3 3 3 3 3 4 4 4 4 4 4 4 5 5 5 5 5 5 5 5 5
-1 -2 -3 -2 -1 -1 -2 -2 -2 -3 -3 -3 -3 -3 -2 -2 -2 -1 -1 -0 0 1 1 1 1 2 2 2 2 2 2 3 3 3 3 3 3 3 4 4 4 4 4 5 5 5 5 5 5
-2 -3 -3 -3 -3 -2 -2 -2 -3 -3 -3 -4 -3 -3 -3 -2 -2 -2 -1 -1 -1 -0 0 1 1 1 1 1 1 2 2 2 2 2 2 3 3 3 3 3 4 4 4 4 4 4 4 4 4
-3 -4 -4 -3 -3 -4 -4 -2 -3 -4 -4 -4 -3 -3 -3 -3 -3 -2 -2 -1 -1 -1 -0 -0 0 0 1 1 1 1 1 1 1 2 2 2 2 2 3 3 3 3 3 3 3 3 3 3 4
Wind_Speed
9 6 3 4 5 3 5 5 3 2 2 1 1 3 5 4 4 2 2 2 4 6 9 11 12 14 14 14 14 15 15 15 15 15 15 15 15 15 15 15 15 15 15 16 16 17 17 18 18
4 2 4 5 4 3 6 5 5 4 3 1 2 2 3 0 1 1 2 1 4 6 8 10 12 13 14 14 14 15 15 15 15 15 15 15 15 14 14 14 14 15 15 15 16 17 17 17 18
2 3 4 4 4 8 6 3 5 2 0 1 1 2 2 0 2 1 2 1 5 6 6 9 11 13 13 14 14 15 15 15 14 14 14 14 14 13 13 14 14 14 15 15 16 16 16 17 17
3 4 4 2 7 7 5 1 1 0 2 3 2 2 1 2 2 2 2 3 6 5 6 8 11 12 13 13 13 14 14 14 14 14 14 13 13 13 13 13 14 14 15 15 15 16 16 17 17
3 4 2 3 8 5 2 2 1 2 1 1 2 1 1 3 5 4 3 4 5 5 6 8 10 11 12 12 13 13 14 14 14 14 13 13 13 13 13 14 14 14 14 15 15 15 16 16 16
3 3 3 7 7 4 2 2 1 1 1 1 2 1 0 4 8 6 4 3 4 5 5 7 9 9 10 11 12 13 13 13 13 13 13 13 13 13 13 13 13 13 14 14 14 15 15 15 15
4 4 5 5 4 3 1 1 1 0 0 1 0 2 1 4 6 5 4 4 4 5 5 6 7 8 9 10 11 12 13 13 13 13 13 13 13 13 13 13 13 13 13 13 14 14 15 15 14
3 3 2 3 4 3 1 1 1 1 1 1 2 3 1 4 5 4 5 4 5 5 5 5 6 7 7 8 10 10 11 12 12 12 12 13 13 12 13 12 12 12 12 13 13 14 14 14 14
3 3 5 6 4 2 1 1 2 2 3 2 2 1 2 2 4 5 6 5 4 5 5 5 5 6 6 7 8 9 10 11 11 11 12 12 11 11 11 11 12 12 12 12 13 14 14 13 13
3 4 7 3 2 1 1 1 0 2 3 2 4 6 4 4 5 5 4 3 3 3 3 4 5 5 5 5 6 7 8 9 9 9 10 10 10 10 10 11 12 11 12 12 13 13 13 12 11
2 5 2 1 0 1 1 1 2 2 1 2 2 2 3 4 4 3 2 2 2 1 2 3 4 4 5 4 5 5 6 7 8 8 8 9 9 8 8 8 10 10 10 10 11 10 10 10 10
1 1 1 2 2 2 1 0 1 1 2 2 1 1 2 3 2 1 1 2 2 2 2 2 3 4 5 5 4 5 4 5 5 6 8 7 6 6 6 6 7 8 8 9 9 9 9 10 10
1 2 2 3 4 2 3 1 0 2 3 3 3 4 3 2 1 2 2 2 3 3 2 2 2 3 4 4 4 3 4 4 5 6 6 7 5 4 5 5 6 7 8 8 8 8 8 8 8
1 0 3 3 3 3 2 2 1 3 3 3 4 3 2 1 2 3 4 4 3 2 2 2 2 3 4 3 3 3 3 4 5 5 6 7 6 5 5 5 5 6 7 8 8 7 7 6 7
1 1 4 3 2 1 1 3 2 3 2 2 2 2 2 2 3 2 2 3 2 2 2 2 2 3 3 3 3 3 4 4 4 5 6 6 6 6 5 4 4 5 7 8 8 7 7 5 5
2 2 2 3 2 2 2 4 3 2 1 1 1 1 2 2 2 3 3 3 3 2 2 1 2 2 3 3 3 3 4 4 4 4 5 6 6 6 5 5 4 5 7 7 5 4 4 3 3
3 1 3 3 1 1 1 3 2 2 2 1 2 1 1 2 3 4 4 3 3 2 1 2 2 2 2 2 3 3 3 4 4 4 4 5 6 6 5 4 4 6 6 5 4 3 3 3 3
3 2 4 4 2 1 1 3 4 3 1 2 2 2 2 2 3 4 4 3 2 2 2 3 3 3 2 3 3 3 4 4 3 4 3 5 5 6 5 5 5 6 5 3 4 3 3 3 3
2 3 4 4 2 1 3 4 5 4 2 3 3 3 2 3 3 4 3 3 3 3 3 3 3 3 2 2 2 2 2 2 2 3 4 4 5 6 6 4 4 5 4 4 5 4 4 2 3
1 1 3 3 2 1 2 5 5 3 2 2 2 3 3 3 4 5 4 4 3 2 3 3 2 2 2 1 1 1 1 1 2 3 3 4 4 5 5 4 3 4 4 4 5 4 3 1 1
2 3 3 3 3 1 2 5 4 3 3 4 5 4 4 3 4 4 4 4 3 3 2 2 2 2 2 2 3 3 3 2 2 2 2 3 4 4 4 4 3 3 4 4 4 4 4 3 0
4 3 3 3 1 3 0 4 4 3 4 4 5 5 4 4 4 4 3 3 3 3 2 3 3 3 3 2 3 4 2 1 1 1 1 2 3 4 4 4 4 3 3 4 4 3 3 4 3
3 3 2 2 2 2 1 2 5 2 3 5 5 4 3 4 4 3 3 3 3 2 2 2 3 3 3 3 3 3 2 1 1 2 2 2 2 3 4 4 3 2 2 3 3 3 4 3 3
2 2 2 2 2 2 3 3 5 3 4 5 4 4 4 4 4 3 3 2 3 3 3 3 3 3 3 3 3 3 2 2 2 2 2 1 1 2 2 3 3 2 2 2 3 3 4 3 3
4 3 3 3 2 4 1 2 5 4 3 3 4 4 4 3 3 4 4 3 3 3 3 3 3 3 3 3 3 2 1 1 1 1 1 1 1 1 1 1 2 2 2 2 2 3 3 3 3
1 2 3 2 3 4 2 4 5 3 3 2 2 3 3 4 4 3 4 3 3 3 2 2 2 2 3 2 2 1 1 1 0 1 0 0 0 0 0 0 1 2 2 2 2 2 2 2 3
1 1 1 2 1 2 4 5 5 3 5 4 4 4 4 4 5 4 4 3 2 3 2 1 1 2 1 1 1 1 1 1 1 0 0 0 0 0 0 0 1 1 2 2 2 2 1 2 2
2 2 3 2 0 3 5 4 4 5 5 5 5 5 5 4 5 4 4 4 3 2 2 2 1 0 1 0 1 1 1 0 0 0 0 1 1 1 0 1 1 1 2 2 2 1 1 2 2
3 2 2 1 2 2 4 5 2 3 3 4 5 4 4 4 4 4 4 3 4 3 3 3 2 1 1 1 0 1 1 1 0 0 0 0 1 1 0 0 1 1 1 1 2 1 2 2 2
2 1 2 2 2 2 2 6 2 2 3 3 4 4 4 3 4 4 4 4 4 4 3 3 3 3 2 1 0 1 0 1 0 0 1 1 1 1 0 0 0 1 1 2 2 2 2 2 3
Wind_Direction
341 356 51 57 63 60 234 240 215 244 226 224 149 136 144 148 153 178 337 105 113 143 159 158 154 151 144 138 134 129 126 123 122 121 120 119 121 120 118 115 111 110 107 106 105 104 103 102 100
341 17 55 68 119 205 250 233 215 217 204 108 57 83 98 109 20 53 27 13 116 132 146 151 152 150 144 141 138 134 131 128 125 125 123 121 121 122 121 118 114 111 109 107 106 106 105 105 103
5 48 90 101 163 202 223 224 218 251 322 93 83 53 116 358 1 359 323 123 110 115 128 146 146 149 147 143 141 138 135 131 128 127 125 123 122 121 124 122 118 113 111 110 109 109 109 106 103
65 54 67 129 217 226 224 283 222 250 19 36 98 53 23 27 349 321 350 106 112 106 113 138 141 145 145 145 144 142 139 135 131 128 127 125 124 123 121 122 120 116 115 114 112 112 110 107 104
60 90 115 221 236 245 246 300 213 138 131 32 87 97 338 5 12 26 63 98 117 109 106 124 130 137 143 144 143 142 141 139 135 131 128 127 125 123 121 118 120 121 120 118 116 115 113 109 106
69 88 157 221 236 258 280 318 39 99 138 63 81 130 208 21 19 15 30 68 102 108 100 120 123 126 134 141 144 141 141 139 138 135 131 128 126 125 123 122 119 122 123 121 118 117 115 111 108
125 135 194 211 229 256 291 352 96 81 52 321 164 133 304 3 2 9 28 58 82 83 87 99 117 118 125 132 135 140 139 138 138 136 133 130 126 124 124 123 121 120 120 121 120 118 116 111 109
124 123 188 220 214 241 311 28 44 78 228 359 70 120 266 326 353 23 45 65 79 74 66 71 86 105 112 122 128 131 137 136 136 133 129 127 126 124 123 121 119 120 120 120 121 120 117 112 109
86 120 210 218 202 224 344 52 5 32 81 43 37 46 342 29 45 49 50 48 59 61 54 55 62 73 97 115 121 122 126 130 130 131 127 123 121 118 119 119 119 119 120 119 118 119 118 112 108
90 184 215 207 189 169 56 72 19 54 38 5 354 4 35 62 71 68 59 52 51 50 46 55 54 61 77 104 108 111 117 120 121 122 123 122 121 119 119 120 119 116 117 119 116 115 115 109 103
130 199 227 343 358 142 118 45 29 119 319 285 286 334 34 56 61 67 53 43 30 68 63 47 59 63 66 76 93 97 110 110 109 110 113 120 120 117 116 116 115 112 111 111 110 105 106 108 107
121 288 313 335 8 33 111 101 40 72 266 343 333 126 93 82 67 52 30 7 9 25 57 40 58 66 61 69 87 94 102 108 110 115 114 117 115 111 117 115 115 114 114 111 107 107 106 105 107
224 296 355 12 30 56 70 48 262 307 326 24 63 77 93 96 50 20 17 15 16 19 27 44 59 75 69 75 78 89 99 115 122 123 122 120 120 116 115 114 113 112 118 118 114 113 110 106 104
180 314 339 347 9 16 75 342 350 304 355 43 66 72 69 67 45 25 12 4 356 2 356 26 69 74 79 78 80 94 102 118 124 128 130 126 122 125 123 116 112 112 120 123 122 121 117 110 109
109 39 347 352 356 333 66 329 280 299 32 47 54 48 32 21 27 19 355 343 328 341 355 20 68 71 82 80 81 92 103 109 121 127 129 125 123 127 129 121 115 116 121 119 112 109 106 102 104
59 56 309 320 5 342 118 254 304 343 76 38 18 23 22 10 19 359 353 346 342 355 11 29 59 74 76 73 78 89 101 102 106 125 130 128 126 125 127 124 122 125 123 119 113 107 104 101 102
47 258 261 301 346 19 155 248 302 16 71 21 343 352 14 3 4 352 347 340 345 359 27 44 50 62 71 69 66 75 89 95 100 110 127 132 131 129 127 126 129 132 122 117 120 107 115 120 114
237 238 250 268 297 70 206 261 297 338 37 347 333 348 1 349 329 340 338 345 1 17 50 56 53 44 57 75 72 68 68 67 77 95 109 123 128 126 118 119 126 130 121 115 115 116 104 116 123
193 199 246 264 277 239 237 270 291 310 346 342 336 338 336 322 333 347 349 8 29 31 51 54 50 42 63 92 101 114 90 68 65 68 88 108 121 125 119 117 130 134 137 138 129 119 119 112 113
229 222 262 295 333 266 262 278 293 317 321 323 327 329 327 336 348 351 6 23 26 28 48 49 47 50 47 72 92 126 119 86 63 56 65 85 100 117 123 120 136 136 135 132 130 124 121 121 115
285 229 246 269 324 354 314 292 291 322 354 360 4 358 353 349 336 333 6 14 14 19 30 44 36 41 41 51 83 75 75 72 63 57 50 48 94 104 120 125 130 139 147 157 154 145 135 151 155
276 270 265 265 293 290 312 284 281 296 328 342 342 347 350 343 338 338 6 4 357 0 18 38 37 36 39 60 96 100 101 99 79 106 75 53 85 104 113 120 119 134 142 157 166 153 152 152 164
261 302 277 248 193 285 307 246 289 337 305 313 317 328 337 335 334 339 351 347 346 4 30 44 47 40 36 44 74 91 71 55 60 71 82 76 68 90 106 112 116 120 139 154 158 155 157 163 167
313 356 24 50 91 269 243 201 282 271 268 287 299 315 327 334 336 347 350 358 4 16 26 50 59 46 46 54 63 70 68 56 72 62 72 65 60 59 76 116 122 124 121 140 165 159 163 170 163
31 62 21 360 348 260 222 206 260 267 265 258 279 296 312 327 337 350 349 352 360 14 26 38 58 46 44 51 64 74 62 98 119 98 96 50 49 26 15 62 125 122 132 150 144 146 161 171 172
308 137 158 223 256 288 301 242 267 299 322 321 312 319 333 335 339 345 337 341 359 5 22 34 55 50 49 47 36 70 67 62 38 44 73 228 234 266 341 22 151 140 140 138 130 125 160 156 172
59 103 161 147 292 290 281 292 305 346 347 346 338 342 335 331 338 338 339 343 358 4 1 25 40 34 40 32 21 42 69 49 28 7 50 266 286 313 70 66 129 145 136 134 126 137 163 162 175
73 128 86 109 347 284 296 281 277 309 314 314 315 315 315 321 326 332 340 342 348 360 352 2 8 332 350 70 27 360 39 49 124 102 24 347 327 330 110 91 101 126 132 139 136 147 150 177 193
28 53 78 123 149 187 281 278 251 246 277 288 294 302 310 317 321 325 336 345 360 14 10 354 345 351 0 22 34 11 15 14 72 138 244 269 310 321 81 119 164 150 141 145 150 167 175 189 199
118 142 143 160 250 202 229 275 315 277 291 297 302 310 314 318 323 329 343 356 2 0 1 358 355 351 340 331 328 320 349 43 30 232 240 251 267 286 272 235 220 175 183 178 179 191 197 199 208
Height
1502 1503 1506 1508 1513 1523 1521 1514 1511 1510 1508 1507 1507 1508 1509 1511 1515 1519 1514 1512 1513 1515 1518 1520 1523 1525 1527 1529 1531 1533 1534 1536 1538 1539 1541 1542 1543 1544 1546 1547 1548 1549 1550 1551 1552 1552 1553 1554 1554
1501 1504 1507 1508 1517 1525 1518 1511 1509 1507 1506 1506 1507 1507 1508 1510 1511 1512 1511 1511 1513 1515 1518 1520 1523 1525 1527 1529 1531 1533 1535 1536 1538 1540 1541 1543 1544 1545 1546 1548 1549 1550 1551 1552 1553 1554 1554 1555 1556
1501 1503 1506 1509 1517 1517 1511 1506 1506 1505 1505 1505 1507 1508 1509 1510 1511 1511 1511 1512 1514 1516 1518 1520 1522 1525 1527 1529 1531 1533 1535 1537 1538 1540 1542 1543 1544 1546 1547 1548 1550 1551 1552 1553 1554 1555 1556 1557 1557
1501 1504 1506 1512 1511 1508 1506 1505 1504 1505 1505 1506 1507 1509 1510 1511 1511 1511 1511 1512 1514 1515 1518 1520 1522 1525 1527 1529 1532 1533 1535 1537 1538 1540 1542 1543 1545 1546 1547 1549 1550 1551 1552 1554 1555 1556 1557 1558 1559
1501 1502 1508 1512 1508 1505 1504 1505 1504 1504 1506 1507 1508 1509 1509 1511 1510 1511 1511 1513 1514 1516 1518 1520 1522 1525 1527 1529 1531 1533 1535 1537 1539 1540 1542 1543 1545 1546 1548 1549 1550 1552 1553 1554 1556 1557 1558 1559 1560
1500 1502 1511 1510 1506 1504 1504 1504 1504 1505 1506 1506 1508 1509 1509 1510 1509 1510 1511 1513 1515 1516 1518 1520 1522 1524 1527 1529 1531 1533 1535 1537 1538 1540 1542 1543 1545 1546 1548 1549 1551 1552 1554 1555 1556 1557 1559 1560 1561
1500 1504 1508 1506 1506 1504 1505 1505 1505 1506 1506 1507 1508 1508 1509 1509 1509 1510 1511 1513 1515 1517 1518 1520 1522 1524 1526 1529 1531 1533 1535 1537 1538 1540 1541 1543 1545 1546 1548 1549 1551 1553 1554 1555 1557 1558 1559 1560 1562
1498 1503 1506 1508 1506 1505 1504 1504 1505 1506 1507 1508 1508 1509 1509 1509 1509 1510 1511 1513 1515 1517 1518 1520 1521 1524 1526 1528 1530 1532 1534 1536 1538 1539 1541 1543 1544 1546 1548 1550 1551 1553 1554 1556 1557 1559 1560 1561 1562
1498 1506 1507 1506 1506 1505 1504 1504 1506 1507 1507 1508 1508 1509 1510 1509 1509 1509 1510 1512 1513 1515 1517 1519 1521 1523 1525 1527 1529 1532 1534 1536 1537 1539 1541 1542 1544 1546 1547 1549 1551 1553 1554 1556 1557 1559 1560 1561 1563
1499 1505 1503 1502 1503 1503 1504 1504 1506 1507 1507 1508 1507 1508 1508 1508 1508 1508 1509 1510 1511 1514 1516 1518 1520 1522 1524 1526 1528 1531 1533 1535 1536 1538 1540 1542 1543 1545 1547 1549 1551 1552 1554 1556 1557 1559 1560 1562 1563
1500 1502 1501 1502 1502 1502 1503 1505 1506 1506 1509 1509 1508 1507 1507 1507 1507 1508 1509 1510 1511 1513 1515 1517 1519 1521 1523 1525 1527 1529 1531 1533 1535 1537 1539 1541 1543 1544 1546 1548 1550 1552 1553 1555 1557 1558 1560 1562 1563
1502 1502 1502 1502 1502 1503 1503 1505 1506 1507 1509 1509 1508 1507 1506 1506 1507 1507 1508 1509 1511 1512 1513 1515 1517 1520 1521 1523 1525 1527 1529 1532 1534 1536 1538 1540 1541 1543 1545 1547 1549 1550 1552 1554 1556 1558 1560 1561 1563
1502 1503 1503 1503 1503 1503 1504 1506 1507 1507 1508 1508 1507 1506 1506 1506 1507 1507 1508 1509 1510 1511 1512 1514 1516 1518 1520 1522 1524 1526 1527 1530 1532 1534 1536 1538 1540 1542 1544 1546 1547 1549 1551 1553 1555 1557 1559 1560 1562
1503 1503 1503 1504 1503 1504 1504 1506 1507 1507 1507 1506 1505 1505 1505 1505 1506 1507 1507 1508 1508 1510 1511 1512 1514 1516 1518 1520 1522 1524 1526 1528 1530 1533 1535 1537 1539 1541 1543 1544 1546 1548 1550 1552 1554 1556 1558 1559 1561
1502 1504 1504 1504 1504 1505 1505 1507 1507 1507 1506 1505 1505 1505 1505 1505 1505 1505 1506 1507 1507 1508 1509 1510 1512 1515 1517 1519 1520 1523 1525 1527 1529 1530 1533 1535 1537 1539 1541 1543 1545 1547 1549 1551 1553 1555 1557 1558 1560
1503 1507 1509 1506 1505 1505 1508 1509 1507 1507 1505 1504 1504 1504 1504 1504 1504 1505 1506 1506 1506 1507 1508 1509 1511 1513 1515 1517 1519 1521 1523 1525 1527 1528 1531 1533 1535 1538 1540 1542 1544 1546 1547 1549 1551 1553 1555 1556 1558
1509 1512 1510 1508 1506 1506 1508 1510 1508 1506 1505 1504 1504 1503 1502 1502 1503 1504 1504 1505 1504 1505 1506 1507 1509 1511 1513 1516 1518 1519 1521 1524 1526 1527 1528 1531 1533 1536 1538 1540 1542 1544 1546 1548 1550 1551 1553 1555 1556
1512 1513 1512 1510 1508 1508 1510 1509 1507 1506 1505 1504 1503 1502 1502 1501 1501 1502 1502 1503 1503 1504 1504 1505 1507 1509 1512 1514 1516 1518 1520 1522 1524 1526 1527 1529 1531 1534 1536 1538 1540 1542 1544 1546 1548 1550 1551 1553 1555
1509 1511 1512 1510 1508 1510 1510 1509 1507 1505 1505 1504 1502 1501 1501 1500 1500 1501 1501 1501 1500 1502 1503 1503 1505 1507 1509 1511 1513 1515 1517 1519 1521 1523 1526 1527 1529 1531 1534 1536 1538 1540 1542 1543 1545 1547 1549 1551 1552
1509 1511 1512 1510 1509 1510 1510 1509 1506 1504 1504 1504 1502 1501 1500 1499 1499 1499 1499 1499 1499 1500 1501 1502 1504 1505 1507 1509 1511 1513 1515 1517 1520 1522 1524 1526 1527 1529 1531 1534 1536 1538 1540 1541 1543 1545 1547 1548 1550
1509 1511 1511 1511 1509 1509 1510 1507 1506 1504 1504 1503 1501 1500 1499 1499 1498 1498 1497 1497 1497 1497 1499 1500 1502 1504 1506 1508 1510 1512 1514 1516 1518 1520 1522 1524 1525 1527 1529 1531 1533 1535 1537 1539 1541 1542 1544 1546 1548
1510 1508 1508 1508 1512 1514 1513 1512 1505 1505 1503 1502 1501 1500 1498 1498 1498 1497 1496 1497 1497 1497 1499 1500 1501 1502 1504 1507 1508 1509 1511 1512 1515 1517 1519 1522 1524 1525 1527 1529 1531 1533 1535 1537 1538 1540 1542 1544 1545
1510 1508 1508 1508 1512 1516 1516 1517 1507 1506 1504 1503 1502 1500 1499 1498 1496 1496 1496 1496 1496 1497 1498 1499 1500 1501 1503 1504 1506 1508 1510 1512 1513 1515 1518 1519 1521 1523 1525 1527 1528 1530 1532 1534 1536 1537 1539 1541 1543
1510 1510 1510 1512 1515 1518 1516 1517 1510 1508 1504 1502 1501 1499 1498 1497 1496 1495 1496 1496 1496 1496 1496 1498 1499 1500 1502 1503 1505 1506 1509 1510 1512 1513 1515 1517 1519 1520 1522 1524 1526 1527 1529 1531 1533 1534 1536 1538 1540
1512 1514 1518 1519 1521 1517 1514 1514 1511 1505 1502 1501 1500 1498 1497 1497 1496 1495 1495 1495 1495 1495 1495 1496 1497 1499 1500 1502 1503 1505 1507 1508 1509 1510 1512 1514 1515 1517 1519 1521 1522 1524 1526 1528 1530 1531 1533 1535 1537
1516 1517 1522 1522 1522 1519 1515 1514 1509 1504 1502 1501 1500 1499 1498 1497 1496 1495 1495 1494 1494 1494 1495 1496 1496 1497 1498 1500 1502 1503 1505 1506 1507 1508 1510 1511 1513 1514 1516 1518 1519 1521 1523 1524 1526 1528 1530 1532 1533
1517 1520 1521 1527 1529 1528 1519 1517 1508 1503 1501 1500 1499 1498 1497 1497 1496 1495 1494 1494 1494 1494 1495 1495 1496 1497 1498 1499 1500 1501 1502 1503 1504 1506 1508 1509 1510 1511 1513 1514 1516 1517 1519 1521 1522 1524 1526 1528 1530
1520 1522 1526 1527 1526 1524 1519 1518 1513 1507 1504 1501 1500 1498 1497 1497 1496 1495 1494 1493 1493 1494 1494 1495 1495 1495 1496 1497 1498 1499 1500 1501 1502 1504 1505 1506 1508 1509 1510 1511 1513 1514 1516 1517 1518 1520 1522 1524 1525
1524 1526 1526 1528 1528 1528 1525 1515 1508 1507 1504 1503 1501 1499 1498 1497 1496 1494 1494 1493 1493 1493 1493 1494 1494 1494 1495 1496 1497 1497 1498 1499 1500 1501 1502 1504 1505 1506 1507 1508 1510 1511 1512 1514 1515 1516 1518 1520 1521
1527 1529 1529 1528 1529 1533 1531 1520 1507 1505 1504 1503 1501 1500 1498 1497 1496 1494 1493 1493 1492 1492 1492 1492 1493 1493 1493 1494 1494 1495 1496 1496 1497 1498 1499 1501 1502 1503 1504 1505 1506 1507 1509 1510 1511 1513 1514 1516 1517